Location: Haliburton Scout Reserve
(45.0900°N, 78.3200°W)
Time: 03:13:00
(UTC-04:00)

PCSat - Pass Details

Date: 30 May 2022
Orbit: 784 x 795 km, 67.1° (Epoch: 24 June)

Event Time Altitude Azimuth Distance (km) Brightness Sun altitude
Rises 23:10:21 0° 334° (NNW) 3,305 14.6 -17.6°
Reaches altitude 10° 23:14:42 10° 7° (N) 2,373 12.8 -18.0°
Maximum altitude 23:16:32 12° 27° (NNE) 2,260 12.4 -18.1°
Drops below altitude 10° 23:18:22 10° 47° (NE) 2,370 12.2 -18.3°
Sets 23:22:42 0° 79° (E) 3,295 12.6 -18.6°
